[[{"header":{"parameterUnit":"m.s-1","parameterCategory":1,"la1":30.2991,"la2":30.254,"lo1":-89.0895,"lo2":-89.0444,"dy":0.0017,"dx":0.0017,"nx":28,"ny":28,"refTime":"2025-08-24T09:00:00:Z","depth":0,"parameterNumber":2,"parameterNumberName":"U-component_of_WINDS"},"data":[0,0,0,0,0,0,0,0,0,0,0,0,0,0,0,0,0,0,0,0,0,0,0,0,0,0,0,0,0,0,0,0,0,0,0,0,0,0,0,0,0,0,0,0,0,0,0,0,0,0,0,0,0,0,0,0,0,0,-1.6993,-1.6992,0,-1.6891,-1.689,-1.6888,-1.6762,-1.676,-1.6758,-1.6756,-1.6654,-1.6653,-1.6652,0,0,0,0,0,0,0,0,0,0,0,0,0,-1.7083,-1.7082,-1.6993,-1.6992,-1.699,-1.6891,-1.689,-1.6888,-1.6763,-1.676,-1.6758,-1.6756,-1.6654,-1.6653,-1.6652,0,0,0,0,0,0,0,0,0,0,0,0,0,-1.7019,-1.7081,-1.6993,-1.6916,-1.6908,-1.6891,-1.6889,-1.6888,-1.6763,-1.676,-1.6757,-1.6754,-1.6655,-1.6653,-1.6652,-1.6704,0,0,-1.6648,-1.6648,0,0,0,0,0,0,0,0,-1.7022,-1.7015,-1.6928,-1.6921,-1.6912,-1.6836,-1.6883,-1.6826,-1.6764,-1.6818,-1.6756,-1.6753,-1.6717,-1.6711,-1.6698,-1.6699,-1.6695,-1.6648,-1.6647,-1.6647,-1.6646,0,0,0,0,0,0,0,-1.7027,-1.7019,-1.6952,-1.6927,-1.6917,-1.6887,-1.6875,-1.6872,-1.6786,-1.6813,-1.6804,-1.6793,-1.6712,-1.67,-1.6695,-1.6693,-1.6648,-1.6647,-1.6646,-1.6646,-1.6735,-1.6738,0,0,0,0,0,0,-1.7043,-1.7024,-1.6956,-1.6949,-1.6961,-1.6888,-1.6874,-1.6864,-1.6785,-1.6771,-1.6796,-1.6788,-1.6703,-1.6696,-1.6691,-1.6748,-1.6647,-1.6646,-1.6645,-1.6732,-1.6736,-1.6739,0,0,0,0,0,0,-1.7045,-1.7038,-1.696,-1.6984,-1.6972,-1.689,-1.6879,-1.6863,-1.685,-1.6772,-1.6757,-1.6799,-1.6701,-1.6693,-1.6702,-1.6743,-1.6645,-1.6644,-1.6728,-1.6733,-1.6738,-1.6863,0,0,0,0,0,0,-1.7048,-1.7039,-1.7057,-1.6985,-1.6971,-1.6972,-1.6881,-1.6863,-1.6848,-1.6837,-1.6771,-1.6757,-1.6698,-1.6705,-1.6701,-1.6739,-1.6643,-1.6724,-1.673,-1.6736,-1.6855,-1.6871,-1.6886,0,0,0,0,0,-1.7052,-1.7097,-1.7059,-1.7051,-1.6992,-1.6975,-1.6967,-1.6897,-1.6852,-1.687,-1.6821,-1.6759,-1.6739,-1.6707,-1.6701,-1.674,-1.6721,-1.6729,-1.6736,-1.6848,-1.6868,-1.6885,0,0,0,0,0,0,-1.7176,-1.7086,-1.7043,-1.7065,-1.7029,-1.6954,-1.6974,-1.692,-1.6896,-1.6886,-1.6801,-1.6787,-1.6808,-1.6774,-1.674,-1.6788,-1.6721,-1.6728,-1.6809,-1.6827,-1.6842,-1.685,-1.6642,0,0,0,0,0,-1.7206,-1.7199,-1.7121,-1.7148,-1.7132,-1.7057,-1.7047,-1.6996,-1.6955,-1.6939,-1.689,-1.6853,-1.6839,-1.6831,-1.6813,-1.6849,-1.6835,-1.6873,-1.6889,-1.6902,-1.6909,-1.6928,-1.6945,-1.6763,-1.6762,-1.6762,0,0,-1.7267,-1.7217,-1.7218,-1.7172,-1.7137,-1.7134,-1.7045,-1.7044,-1.7041,-1.6939,-1.6946,-1.6909,-1.6862,-1.6887,-1.6894,-1.6859,-1.6956,-1.6911,-1.6922,-1.6921,-1.6937,-1.6955,-1.697,-1.6767,-1.6766,-1.6766,0,0,-1.7378,-1.7339,-1.7359,-1.7326,-1.7276,-1.7226,-1.7231,-1.7164,-1.7136,-1.7141,-1.7065,-1.7061,-1.7037,-1.7008,-1.699,-1.7093,-1.7037,-1.7089,-1.717,-1.719,-1.7204,-1.7217,-1.7255,-1.727,-1.7096,-1.7097,-1.7097,0,-1.7462,-1.7452,-1.7376,-1.738,-1.7363,-1.7271,-1.7292,-1.7264,-1.7211,-1.7202,-1.7163,-1.7133,-1.7095,-1.7112,-1.7138,-1.7125,-1.713,-1.7097,-1.7208,-1.722,-1.723,-1.7266,-1.7281,-1.7103,-1.7103,-1.7102,-1.7101,0,-1.7558,-1.7553,-1.7575,-1.7526,-1.7511,-1.7524,-1.7451,-1.7446,-1.7397,-1.7352,-1.736,-1.7312,-1.7283,-1.7284,-1.7236,-1.7295,-1.7275,-1.7224,-1.7155,-1.7256,-1.7289,-1.7302,-1.7113,-1.7111,-1.7109,-1.7107,0,0,-1.7743,-1.7653,-1.7663,-1.764,-1.7579,-1.7574,-1.7584,-1.7556,-1.7554,-1.7521,-1.7528,-1.7511,-1.7464,-1.7443,-1.7392,-1.7409,-1.7497,-1.7355,-1.7353,-1.7385,-1.7562,-1.7602,-1.7619,-1.7459,-1.7461,-1.7463,-1.7566,0,-1.7844,-1.7854,-1.7787,-1.7816,-1.7812,-1.7725,-1.7734,-1.7698,-1.7657,-1.7648,-1.7602,-1.7593,-1.753,-1.7517,-1.7531,-1.7483,-1.7531,-1.7475,-1.7467,-1.7467,-1.7482,-1.7636,-1.7677,-1.7777,-1.7578,-1.758,-1.7582,0,-1.7962,-1.7936,-1.7965,-1.7904,-1.79,-1.7908,-1.7879,-1.7871,-1.783,-1.7798,-1.7778,-1.7719,-1.7726,-1.7661,-1.767,-1.7634,-1.7626,-1.7603,-1.7605,-1.7603,-1.7532,-1.7639,-1.7807,-1.7823,-1.7601,-1.7599,-1.7598,0,-1.8097,-1.8069,-1.8083,-1.8066,-1.7995,-1.8004,-1.7975,-1.793,-1.7919,-1.7893,-1.7885,-1.7862,-1.7849,-1.7833,-1.777,-1.7728,-1.7788,-1.7717,-1.7764,-1.7766,-1.7781,-1.7781,-1.7953,-1.7775,-1.7775,-1.7774,-1.7774,0,-1.8217,-1.8239,-1.8143,-1.8152,-1.8174,-1.8098,-1.8122,-1.8085,-1.8046,-1.8048,-1.7972,-1.7975,-1.7891,-1.7886,-1.7837,-1.7854,-1.7848,-1.7824,-1.7811,-1.7832,-1.7836,-1.7827,-1.7819,-1.7778,-1.7777,-1.7777,-1.7776,0,-1.8372,-1.8308,-1.8318,-1.825,-1.8234,-1.8254,-1.8196,-1.8203,-1.8157,-1.816,-1.8156,-1.8085,-1.8075,-1.8011,-1.7986,-1.7953,-1.7989,-1.7961,-1.8003,-1.7995,-1.8046,-1.8043,-1.8219,-1.8239,-1.8048,-1.805,-1.8051,0,-1.8453,-1.8467,-1.8402,-1.8397,-1.8372,-1.8365,-1.8353,-1.8279,-1.827,-1.8226,-1.8238,-1.8222,-1.8205,-1.8193,-1.8141,-1.8122,-1.8094,-1.8157,-1.8091,-1.8112,-1.8098,-1.8098,-1.81,-1.8172,-1.8174,-1.8176,-1.8178,0,-1.8605,-1.8573,-1.8559,-1.8534,-1.8522,-1.8499,-1.8472,-1.8473,-1.8391,-1.8386,-1.8374,-1.8361,-1.8337,-1.8323,-1.8295,-1.8266,-1.821,-1.8199,-1.821,-1.8231,-1.8256,-1.8245,-1.8043,-1.8196,-1.8194,-1.8193,-1.8192,-1.8191,-1.8726,-1.8736,-1.8692,-1.8679,-1.8651,-1.8628,-1.8631,-1.8587,-1.8576,-1.8549,-1.8507,-1.8502,-1.8463,-1.842,-1.8397,-1.8393,-1.836,-1.8375,-1.8378,-1.8384,-1.8395,-1.8256,-1.8388,-1.8387,-1.8387,-1.8386,-1.8386,0,-1.8876,-1.8844,-1.8833,-1.8797,-1.8788,-1.8734,-1.8702,-1.8698,-1.8695,-1.8663,-1.8648,-1.8637,-1.8623,-1.857,-1.8551,-1.8559,-1.8533,-1.8557,-1.8556,-1.8551,-1.8425,-1.8419,-1.8579,-1.8579,-1.8579,-1.8579,-1.8579,-1.8579,-1.8953,-1.8967,-1.8931,-1.8932,-1.89,-1.8894,-1.8881,-1.886,-1.8834,-1.8825,-1.8813,-1.8778,-1.8738,-1.8717,-1.8703,-1.8687,-1.8685,-1.8718,-1.8695,-1.8578,-1.856,-1.8542,-1.8536,-1.8718,-1.8718,-1.8822,-1.8823,-1.8823]},{"header":{"parameterUnit":"m.s-1","parameterCategory":1,"la1":30.2991,"la2":30.254,"lo1":-89.0895,"lo2":-89.0444,"dy":0.0017,"dx":0.0017,"nx":28,"ny":28,"refTime":"2025-08-24T09:00:00:Z","depth":0,"parameterNumber":3,"parameterNumberName":"V-component_of_WINDS"},"data":[0,0,0,0,0,0,0,0,0,0,0,0,0,0,0,0,0,0,0,0,0,0,0,0,0,0,0,0,0,0,0,0,0,0,0,0,0,0,0,0,0,0,0,0,0,0,0,0,0,0,0,0,0,0,0,0,0,0,2.1258,2.1258,0,2.1237,2.1237,2.1237,2.1231,2.1231,2.1231,2.1231,2.1206,2.1205,2.1205,0,0,0,0,0,0,0,0,0,0,0,0,0,2.1289,2.1289,2.1258,2.1258,2.1258,2.1237,2.1237,2.1237,2.1231,2.1231,2.1231,2.1231,2.1206,2.1205,2.1204,0,0,0,0,0,0,0,0,0,0,0,0,0,2.1273,2.1289,2.1258,2.1252,2.1252,2.1237,2.1237,2.1237,2.1231,2.1231,2.1231,2.1231,2.1207,2.1206,2.1204,2.1193,0,0,2.1201,2.12,0,0,0,0,0,0,0,0,2.1274,2.1272,2.1253,2.1253,2.1252,2.1237,2.1239,2.1222,2.1231,2.1239,2.1231,2.1232,2.1216,2.1214,2.121,2.1192,2.1191,2.1201,2.12,2.1199,2.1199,0,0,0,0,0,0,0,2.1275,2.1273,2.125,2.1253,2.1252,2.125,2.1248,2.1236,2.1226,2.1238,2.1238,2.1235,2.1216,2.1211,2.1209,2.1191,2.1201,2.12,2.1199,2.1198,2.1163,2.1162,0,0,0,0,0,0,2.1278,2.1274,2.125,2.1249,2.1264,2.1249,2.1247,2.1241,2.1227,2.1224,2.1235,2.1235,2.1213,2.121,2.1208,2.1194,2.1199,2.1198,2.1198,2.1163,2.1163,2.1162,0,0,0,0,0,0,2.1278,2.1276,2.1251,2.1261,2.1258,2.1248,2.1243,2.1241,2.1236,2.1224,2.1222,2.1232,2.1213,2.121,2.1197,2.1193,2.1198,2.1197,2.1163,2.1163,2.1162,2.1166,0,0,0,0,0,0,2.1279,2.1276,2.1272,2.1261,2.1258,2.1242,2.1242,2.124,2.1235,2.1234,2.1221,2.1219,2.1213,2.1199,2.1196,2.1191,2.1196,2.1163,2.1163,2.1163,2.1166,2.1165,2.1165,0,0,0,0,0,2.128,2.1273,2.1272,2.1269,2.1253,2.1242,2.1239,2.1233,2.1234,2.123,2.1223,2.1219,2.1194,2.1198,2.1194,2.1189,2.1164,2.1163,2.1163,2.1166,2.1166,2.1165,0,0,0,0,0,0,2.1283,2.1272,2.127,2.126,2.1252,2.1241,2.1235,2.1233,2.1223,2.1223,2.1215,2.1212,2.12,2.1193,2.1198,2.1178,2.1179,2.1177,2.1182,2.1182,2.1181,2.1183,2.1195,0,0,0,0,0,2.1282,2.1275,2.1265,2.1257,2.1253,2.1245,2.124,2.1236,2.1227,2.1223,2.1214,2.1205,2.1195,2.1188,2.1178,2.1165,2.1162,2.116,2.1159,2.1159,2.1158,2.115,2.1149,2.1161,2.1161,2.1161,0,0,2.1281,2.1274,2.1269,2.1257,2.1251,2.1242,2.1242,2.1233,2.1227,2.1221,2.1209,2.1203,2.1191,2.1179,2.1172,2.1173,2.1154,2.1159,2.1158,2.1157,2.115,2.1149,2.1148,2.116,2.116,2.116,0,0,2.1273,2.1268,2.126,2.1254,2.1244,2.1239,2.1237,2.1227,2.1223,2.1211,2.1207,2.1198,2.1181,2.1173,2.1166,2.1157,2.1153,2.1154,2.1151,2.1144,2.1143,2.1142,2.1138,2.1137,2.1153,2.1153,2.1153,0,2.1272,2.1261,2.1256,2.1248,2.1242,2.1238,2.123,2.1224,2.1211,2.1206,2.1207,2.1186,2.1178,2.1163,2.1161,2.1156,2.1153,2.1155,2.1144,2.1143,2.1142,2.1138,2.1137,2.1153,2.1153,2.1153,2.1153,0,2.1259,2.1251,2.1246,2.1235,2.1229,2.1221,2.1214,2.1208,2.1205,2.1199,2.1187,2.1177,2.1165,2.1162,2.1158,2.1146,2.1147,2.1146,2.1146,2.1141,2.1137,2.1136,2.1153,2.1153,2.1153,2.1153,0,0,2.1252,2.124,2.1238,2.1233,2.1223,2.1216,2.1207,2.1197,2.1191,2.1183,2.1174,2.116,2.116,2.1152,2.1148,2.1141,2.1134,2.1141,2.1141,2.114,2.112,2.112,2.1119,2.1132,2.1132,2.1131,2.1121,0,2.1243,2.1229,2.1224,2.1212,2.1204,2.12,2.1193,2.1185,2.1179,2.1171,2.1165,2.1155,2.1155,2.115,2.1144,2.1136,2.113,2.1137,2.1123,2.1122,2.1125,2.1117,2.1117,2.1107,2.1119,2.1119,2.1119,0,2.1231,2.1223,2.121,2.1201,2.1198,2.1191,2.1181,2.1174,2.1164,2.1161,2.1153,2.1149,2.1139,2.1141,2.1126,2.1131,2.1125,2.112,2.112,2.1117,2.112,2.1114,2.1104,2.1102,2.1116,2.1117,2.1117,0,2.1226,2.1213,2.1203,2.1199,2.1188,2.1184,2.1179,2.117,2.1164,2.1155,2.1151,2.114,2.1134,2.1126,2.1119,2.1121,2.1104,2.1106,2.11,2.11,2.1096,2.1096,2.1084,2.1093,2.1093,2.1093,2.1093,0,2.1216,2.1208,2.1201,2.1195,2.1186,2.1181,2.1171,2.1166,2.1158,2.115,2.1146,2.1139,2.113,2.1121,2.1115,2.1103,2.1101,2.1097,2.1095,2.1097,2.1097,2.1092,2.1092,2.1093,2.1093,2.1093,2.1093,0,2.1209,2.1204,2.1193,2.1185,2.1182,2.1176,2.1167,2.1161,2.1156,2.1146,2.1143,2.1135,2.1124,2.1116,2.1102,2.1098,2.1085,2.1084,2.1088,2.1088,2.1082,2.1082,2.1066,2.1063,2.1075,2.1075,2.1075,0,2.1203,2.1196,2.1187,2.1183,2.1178,2.117,2.1164,2.1159,2.1153,2.1143,2.1137,2.1127,2.1118,2.11,2.1092,2.1081,2.1079,2.1074,2.1077,2.1079,2.1078,2.1078,2.1077,2.1073,2.1073,2.1073,2.1073,0,2.1191,2.119,2.1182,2.1174,2.1168,2.1161,2.1154,2.115,2.1143,2.1136,2.1126,2.1119,2.1106,2.1095,2.1083,2.1076,2.1073,2.1072,2.107,2.1071,2.1074,2.1072,2.1086,2.1072,2.1073,2.1073,2.1073,2.1073,2.1184,2.1178,2.1171,2.1163,2.1158,2.1151,2.1145,2.1139,2.1131,2.1121,2.1118,2.1107,2.1097,2.1082,2.1075,2.1066,2.1066,2.1063,2.1062,2.1062,2.1061,2.1077,2.1064,2.1064,2.1064,2.1064,2.1064,0,2.1172,2.1168,2.116,2.1151,2.1145,2.1144,2.1136,2.113,2.1121,2.1114,2.1106,2.1094,2.1083,2.1075,2.1063,2.1058,2.1056,2.1055,2.1055,2.1053,2.1062,2.1065,2.1056,2.1056,2.1056,2.1056,2.1056,2.1056,2.1165,2.1155,2.1153,2.114,2.1136,2.1126,2.1122,2.1115,2.1109,2.1096,2.1088,2.1083,2.1075,2.1064,2.1054,2.1051,2.1047,2.1046,2.1043,2.1052,2.1052,2.1053,2.1056,2.1045,2.1045,2.1035,2.1035,2.1035]}]]